04:54
Airports
History
Links
Donate
Help keep this website running!
PayPal
Bitcoin
This page is community maintained. The information is intended for PC simulator navigation or reference.
Always use approved charts for navigation.
B10
Bowman FieldUpdated 21-May-2014
Bowman Field (B10)
Livermore Falls, Maine, United States (4254)
4
Lat/Lng:44° 24' 36" N / 70° 8' 45.9" W
44.41 / -70.146083
Elevation:324'ft / 99mMSL
Declination:W018°
ID / ICAO:B10
FAA:B10
Runways:1
Longest:02-20
Grass 724m / 2,376ft
(Edited 2014-05-21) [ Sign in to Edit ]
Nearby Weather03:53 GMT 2017-10-20
Nearby weather at KAUG, Augusta State located 18.3 nautical miles from B10
Altimeter: 29.89
Visibility: 10.0 statute miles
Wind: 5 knots (from 190°)
Temp: 13°c / 55°f
Humidity: 62.4%

METAR: KAUG 200353Z AUTO 19005KT 10SM CLR 13/06 A2989 RMK AO2 SLP121 T01280061

(Powered by phpweather)
Nearby VORs <50NM
Nearby NDBs
Runway 02 / 20
Dimensions:724.2 x 38.1m 2376' x 125'ft
Surface:Grass
Runway 02 [A]Runway 20 [B]
Heading:019°MH  001°TH199°MH   181°TH
Lat:
Lng:
44° 24' 28.4"N
70° 8' 43.78"W
44° 24' 52.08"N
70° 8' 42.62"W
User Notes and Comments
44° 24' 36" N / 70° 8' 45.9" W
Distance To
Airport ID:
Nearby Airports
(R) Hilltop 8.3 NM
ME92 NNW 332°
4 Mount Vernon 11.8 NM
74B NE 54°
(R) Rocky Ridge 12.1 NM
ME39 S 176°
(U) Twitchell 15.9 NM
3B5 SSW 195°
(R) Sunny Hill 16.7 NM
ME60 ENE 76°
4 Cummings 17.0 NM
ME44 WSW 240°
(U) Augusta State 18.3 NM
KAUG ( WX ) ESE 109°
VFR Chart
Flight Planning at SkyVector.com